| time (UTC) | temp F | wind direction | speed MPH | gust MPH | rain 1hr in | rain 24hr in | rain mn in | humidity % | barometer mb |
| 20260504193637 | 68 | 270 | 3.0 | 4.0 | 0.00 | 0.00 | 0.00 | 8 | 1006.3 |
| 20260504193203 | 67 | 0 | 0.0 | 1.0 | 0.00 | 0.00 | 0.00 | 8 | 1006.1 |
| 20260504192707 | 66 | 90 | 3.0 | 6.0 | 0.00 | 0.00 | 0.00 | 8 | 1006.1 |
| 20260504192430 | 66 | 67 | 3.0 | 4.0 | 0.00 | 0.00 | 0.00 | 8 | 1006.0 |
| 20260504192304 | 66 | 45 | 0.0 | 3.0 | 0.00 | 0.00 | 0.00 | 8 | 1005.9 |
| 20260504191957 | 67 | 0 | 0.0 | 0.0 | 0.00 | 0.00 | 0.00 | 8 | 1006.0 |
| 20260504191520 | 67 | 315 | 1.0 | 2.0 | 0.00 | 0.00 | 0.00 | 8 | 1005.8 |
| 20260504191439 | 68 | 0 | 0.0 | 0.0 | 0.00 | 0.00 | 0.00 | 8 | 1005.7 |
| 20260504191106 | 68 | 0 | 0.0 | 1.0 | 0.00 | 0.00 | 0.00 | 8 | 1005.7 |
| 20260504190614 | 68 | 292 | 2.0 | 2.0 | 0.00 | 0.00 | 0.00 | 8 | 1005.6 |
| 20260504190550 | 68 | 292 | 2.0 | 2.0 | 0.00 | 0.00 | 0.00 | 8 | 1005.7 |
| 20260504190122 | 68 | 270 | 1.0 | 2.0 | 0.00 | 0.00 | 0.00 | 8 | 1005.5 |
| 20260504185657 | 69 | 0 | 0.0 | 0.0 | 0.00 | 0.00 | 0.00 | 8 | 1005.5 |
| 20260504185547 | 69 | 0 | 0.0 | 0.0 | 0.00 | 0.00 | 0.00 | 8 | 1005.5 |
| 20260504185456 | 68 | 0 | 0.0 | 0.0 | 0.00 | 0.00 | 0.00 | 8 | 1005.5 |
| 20260504185015 | 69 | 0 | 0.0 | 0.0 | 0.00 | 0.00 | 0.00 | 8 | 1005.3 |
| 20260504184639 | 69 | 0 | 0.0 | 0.0 | 0.00 | 0.00 | 0.00 | 8 | 1005.3 |
| 20260504184525 | 69 | 0 | 0.0 | 0.0 | 0.00 | 0.00 | 0.00 | 8 | 1005.2 |
| 20260504184054 | 69 | 0 | 0.0 | 0.0 | 0.00 | 0.00 | 0.00 | 8 | 1005.2 |
| 20260504183715 | 70 | 292 | 3.0 | 3.0 | 0.00 | 0.00 | 0.00 | 7 | 1005.2 |
| 20260504183636 | 71 | 315 | 3.0 | 4.0 | 0.00 | 0.00 | 0.00 | 7 | 1005.2 |
| 20260504183211 | 71 | 0 | 0.0 | 1.0 | 0.00 | 0.00 | 0.00 | 7 | 1005.2 |
| 20260504182720 | 73 | 315 | 3.0 | 4.0 | 0.00 | 0.00 | 0.00 | 7 | 1005.1 |
| 20260504182716 | 73 | 315 | 3.0 | 4.0 | 0.00 | 0.00 | 0.00 | 7 | 1005.1 |
| 20260504182507 | 74 | 315 | 0.0 | 4.0 | 0.00 | 0.00 | 0.00 | 7 | 1004.9 |
| 20260504182354 | 74 | 0 | 0.0 | 0.0 | 0.00 | 0.00 | 0.00 | 7 | 1004.8 |
| 20260504181903 | 75 | 0 | 0.0 | 2.0 | 0.00 | 0.00 | 0.00 | 6 | 1004.8 |
| 20260504181543 | 75 | 90 | 0.0 | 2.0 | 0.00 | 0.00 | 0.00 | 6 | 1004.8 |
| 20260504181444 | 75 | 0 | 0.0 | 2.0 | 0.00 | 0.00 | 0.00 | 6 | 1004.7 |
| 20260504181040 | 75 | 67 | 2.0 | 2.0 | 0.00 | 0.00 | 0.00 | 6 | 1004.7 |
| 20260504180620 | 76 | 0 | 0.0 | 0.0 | 0.00 | 0.00 | 0.00 | 6 | 1004.7 |
| 20260504180154 | 76 | 0 | 0.0 | 1.0 | 0.00 | 0.00 | 0.00 | 6 | 1004.6 |
| 20260504175700 | 76 | 0 | 0.0 | 0.0 | 0.00 | 0.00 | 0.00 | 6 | 1004.6 |
| 20260504175401 | 77 | 112 | 0.0 | 1.0 | 0.00 | 0.00 | 0.00 | 6 | 1004.6 |
| 20260504175329 | 77 | 112 | 0.0 | 1.0 | 0.00 | 0.00 | 0.00 | 6 | 1004.6 |
| 20260504174951 | 77 | 0 | 0.0 | 0.0 | 0.00 | 0.00 | 0.00 | 6 | 1004.7 |
| 20260504174444 | 76 | 0 | 0.0 | 0.0 | 0.00 | 0.00 | 0.00 | 6 | 1004.7 |
| 20260504174040 | 76 | 0 | 0.0 | 0.0 | 0.00 | 0.00 | 0.00 | 6 | 1004.8 |
| 20260504173611 | 76 | 112 | 0.0 | 2.0 | 0.00 | 0.00 | 0.00 | 6 | 1004.6 |
| 20260504173554 | 76 | 0 | 0.0 | 0.0 | 0.00 | 0.00 | 0.00 | 6 | 1004.8 |
| 20260504173126 | 75 | 112 | 0.0 | 1.0 | 0.00 | 0.00 | 0.00 | 6 | 1004.8 |
| 20260504172706 | 76 | 112 | 1.0 | 3.0 | 0.00 | 0.00 | 0.00 | 6 | 1004.8 |
| 20260504172701 | 76 | 112 | 1.0 | 3.0 | 0.00 | 0.00 | 0.00 | 6 | 1004.8 |
| 20260504172346 | 76 | 0 | 0.0 | 0.0 | 0.00 | 0.00 | 0.00 | 6 | 1004.7 |
| 20260504171932 | 75 | 90 | 3.0 | 3.0 | 0.00 | 0.00 | 0.00 | 6 | 1004.8 |
| 20260504171511 | 75 | 67 | 3.0 | 4.0 | 0.00 | 0.00 | 0.00 | 6 | 1004.5 |
| 20260504171046 | 75 | 67 | 2.0 | 3.0 | 0.00 | 0.00 | 0.00 | 6 | 1004.5 |
| 20260504170605 | 75 | 90 | 4.0 | 6.0 | 0.00 | 0.00 | 0.00 | 6 | 1004.6 |
| 20260504170121 | 75 | 67 | 2.0 | 4.0 | 0.00 | 0.00 | 0.00 | 6 | 1004.6 |
| 20260504160124 | 74 | 112 | 1.0 | 3.0 | 0.00 | 0.00 | 0.00 | 7 | 1004.9 |
| 20260504151038 | 69 | 67 | 5.0 | 8.0 | 0.00 | 0.00 | 0.00 | 8 | 1005.4 |
| 20260504150621 | 68 | 67 | 6.0 | 9.0 | 0.00 | 0.00 | 0.00 | 8 | 1005.5 |
| 20260504150156 | 69 | 67 | 3.0 | 4.0 | 0.00 | 0.00 | 0.00 | 8 | 1005.6 |
| 20260504141111 | 70 | 112 | 4.0 | 6.0 | 0.00 | 0.00 | 0.00 | 8 | 1006.0 |
| 20260504140611 | 71 | 90 | 3.0 | 6.0 | 0.00 | 0.00 | 0.00 | 8 | 1005.9 |
| 20260504140121 | 71 | 90 | 6.0 | 8.0 | 0.00 | 0.00 | 0.00 | 8 | 1006.1 |
| 20260504130608 | 68 | 22 | 1.0 | 3.0 | 0.00 | 0.00 | 0.00 | 9 | 1007.0 |
| 20260504130536 | 68 | 22 | 1.0 | 3.0 | 0.00 | 0.00 | 0.00 | 9 | 1007.0 |
| 20260504130120 | 66 | 90 | 2.0 | 4.0 | 0.00 | 0.00 | 0.00 | 9 | 1007.0 |
| 20260504120127 | 64 | 67 | 5.0 | 6.0 | 0.00 | 0.00 | 0.00 | 9 | 1007.6 |
| 20260504110536 | 65 | 90 | 2.0 | 3.0 | 0.00 | 0.00 | 0.00 | 9 | 1008.3 |
| 20260504110346 | 65 | 90 | 0.0 | 2.0 | 0.00 | 0.00 | 0.00 | 9 | 1008.3 |
| 20260504100614 | 63 | 315 | 0.0 | 2.0 | 0.00 | 0.00 | 0.00 | 9 | 1008.6 |
| 20260504100557 | 63 | 315 | 1.0 | 2.0 | 0.00 | 0.00 | 0.00 | 9 | 1008.5 |
| 20260504100129 | 63 | 0 | 0.0 | 0.0 | 0.00 | 0.00 | 0.00 | 9 | 1008.5 |
| 20260504081858 | 65 | 67 | 0.0 | 1.0 | 0.00 | 0.00 | 0.00 | 8 | 1008.4 |
| 20260504081438 | 66 | 0 | 0.0 | 0.0 | 0.00 | 0.00 | 0.00 | 8 | 1008.4 |
| 20260504081401 | 66 | 0 | 0.0 | 0.0 | 0.00 | 0.00 | 0.00 | 8 | 1008.4 |
| 20260504081028 | 66 | 0 | 0.0 | 0.0 | 0.00 | 0.00 | 0.00 | 8 | 1008.4 |
| 20260504080613 | 66 | 0 | 0.0 | 0.0 | 0.00 | 0.00 | 0.00 | 8 | 1008.3 |
| 20260504080533 | 66 | 0 | 0.0 | 1.0 | 0.00 | 0.00 | 0.00 | 8 | 1008.4 |
| 20260504080118 | 66 | 112 | 1.0 | 2.0 | 0.00 | 0.00 | 0.00 | 8 | 1008.3 |
| 20260504070148 | 63 | 0 | 0.0 | 0.0 | 0.00 | 0.00 | 0.00 | 9 | 1008.5 |
| 20260504060146 | 59 | 292 | 2.0 | 3.0 | 0.00 | 0.00 | 0.00 | 9 | 1008.3 |
| 20260504050611 | 59 | 292 | 2.0 | 3.0 | 0.00 | 0.00 | 0.00 | 9 | 1008.1 |
| 20260504050555 | 58 | 292 | 0.0 | 3.0 | 0.00 | 0.00 | 0.00 | 9 | 1008.0 |
| 20260504050126 | 59 | 0 | 0.0 | 0.0 | 0.00 | 0.00 | 0.00 | 9 | 1008.1 |
| 20260504045701 | 59 | 0 | 0.0 | 0.0 | 0.00 | 0.00 | 0.00 | 9 | 1008.0 |
| 20260504045350 | 59 | 0 | 0.0 | 0.0 | 0.00 | 0.00 | 0.00 | 9 | 1008.1 |
| 20260504044932 | 59 | 292 | 0.0 | 1.0 | 0.00 | 0.00 | 0.00 | 9 | 1008.0 |
| 20260504044446 | 59 | 292 | 0.0 | 1.0 | 0.00 | 0.00 | 0.00 | 9 | 1008.1 |
| 20260504044045 | 59 | 292 | 1.0 | 2.0 | 0.00 | 0.00 | 0.00 | 9 | 1008.2 |
| 20260504043615 | 59 | 292 | 1.0 | 2.0 | 0.00 | 0.00 | 0.00 | 9 | 1008.2 |
| 20260504043559 | 59 | 292 | 1.0 | 2.0 | 0.00 | 0.00 | 0.00 | 9 | 1008.2 |
| 20260504043130 | 60 | 292 | 2.0 | 2.0 | 0.00 | 0.00 | 0.00 | 9 | 1008.3 |
| 20260504042708 | 60 | 315 | 2.0 | 2.0 | 0.00 | 0.00 | 0.00 | 9 | 1008.3 |
| 20260504042705 | 60 | 315 | 2.0 | 2.0 | 0.00 | 0.00 | 0.00 | 9 | 1008.3 |
| 20260504042411 | 60 | 315 | 2.0 | 2.0 | 0.00 | 0.00 | 0.00 | 9 | 1008.3 |
| 20260504041929 | 61 | 270 | 1.0 | 2.0 | 0.00 | 0.00 | 0.00 | 9 | 1008.2 |
| 20260504041441 | 61 | 0 | 0.0 | 1.0 | 0.00 | 0.00 | 0.00 | 9 | 1008.3 |
| 20260504041040 | 61 | 0 | 0.0 | 0.0 | 0.00 | 0.00 | 0.00 | 9 | 1008.3 |
| 20260504040554 | 61 | 202 | 0.0 | 1.0 | 0.00 | 0.00 | 0.00 | 9 | 1008.2 |
| 20260504040126 | 61 | 157 | 0.0 | 2.0 | 0.00 | 0.00 | 0.00 | 9 | 1008.3 |
| 20260504035704 | 61 | 0 | 0.0 | 0.0 | 0.00 | 0.00 | 0.00 | 9 | 1008.4 |
| 20260504035702 | 61 | 0 | 0.0 | 0.0 | 0.00 | 0.00 | 0.00 | 9 | 1008.4 |
| 20260504035700 | 61 | 0 | 0.0 | 0.0 | 0.00 | 0.00 | 0.00 | 9 | 1008.4 |
| 20260504035359 | 61 | 0 | 0.0 | 0.0 | 0.00 | 0.00 | 0.00 | 9 | 1008.3 |
| 20260504034957 | 62 | 0 | 0.0 | 1.0 | 0.00 | 0.00 | 0.00 | 9 | 1008.4 |
| 20260504034556 | 62 | 0 | 0.0 | 1.0 | 0.00 | 0.00 | 0.00 | 9 | 1008.4 |
| 20260504034102 | 62 | 202 | 0.0 | 2.0 | 0.00 | 0.00 | 0.00 | 9 | 1008.4 |
| 20260504033611 | 62 | 0 | 0.0 | 1.0 | 0.00 | 0.00 | 0.00 | 9 | 1008.4 |
| 20260504033123 | 62 | 0 | 0.0 | 0.0 | 0.00 | 0.00 | 0.00 | 9 | 1008.8 |
| 20260504032711 | 62 | 225 | 0.0 | 1.0 | 0.00 | 0.00 | 0.00 | 9 | 1008.7 |
| 20260504032434 | 62 | 0 | 0.0 | 1.0 | 0.00 | 0.00 | 0.00 | 9 | 1008.8 |
| 20260504032255 | 62 | 0 | 0.0 | 0.0 | 0.00 | 0.00 | 0.00 | 9 | 1008.8 |
| 20260504031957 | 62 | 0 | 0.0 | 0.0 | 0.00 | 0.00 | 0.00 | 9 | 1008.9 |
| 20260504031503 | 62 | 0 | 0.0 | 0.0 | 0.00 | 0.00 | 0.00 | 9 | 1009.1 |
| 20260504031402 | 62 | 0 | 0.0 | 0.0 | 0.00 | 0.00 | 0.00 | 9 | 1009.0 |
| 20260504031024 | 62 | 0 | 0.0 | 0.0 | 0.00 | 0.00 | 0.00 | 9 | 1009.0 |
| 20260504030608 | 62 | 202 | 1.0 | 2.0 | 0.00 | 0.00 | 0.00 | 9 | 1009.0 |
| 20260504030535 | 62 | 202 | 1.0 | 2.0 | 0.00 | 0.00 | 0.00 | 9 | 1009.0 |
| 20260504030119 | 62 | 0 | 0.0 | 0.0 | 0.00 | 0.00 | 0.00 | 9 | 1009.0 |
| 20260504025709 | 62 | 0 | 0.0 | 0.0 | 0.00 | 0.00 | 0.00 | 9 | 1009.0 |
| 20260504025705 | 62 | 0 | 0.0 | 0.0 | 0.00 | 0.00 | 0.00 | 9 | 1009.0 |
| 20260504025449 | 62 | 0 | 0.0 | 0.0 | 0.00 | 0.00 | 0.00 | 9 | 1009.1 |
| 20260504025007 | 62 | 202 | 1.0 | 2.0 | 0.00 | 0.00 | 0.00 | 9 | 1009.2 |
| 20260504024703 | 62 | 0 | 0.0 | 0.0 | 0.00 | 0.00 | 0.00 | 9 | 1009.2 |
| 20260504024517 | 62 | 0 | 0.0 | 0.0 | 0.00 | 0.00 | 0.00 | 9 | 1009.1 |
| 20260504024047 | 62 | 0 | 0.0 | 0.0 | 0.00 | 0.00 | 0.00 | 9 | 1009.2 |
| 20260504023703 | 61 | 0 | 0.0 | 0.0 | 0.00 | 0.00 | 0.00 | 9 | 1009.3 |
| 20260504023629 | 61 | 0 | 0.0 | 0.0 | 0.00 | 0.00 | 0.00 | 9 | 1009.3 |
| 20260504023204 | 61 | 0 | 0.0 | 0.0 | 0.00 | 0.00 | 0.00 | 9 | 1009.2 |
| 20260504022712 | 61 | 0 | 0.0 | 0.0 | 0.00 | 0.00 | 0.00 | 9 | 1009.2 |
| 20260504022709 | 61 | 0 | 0.0 | 0.0 | 0.00 | 0.00 | 0.00 | 9 | 1009.2 |
| 20260504022446 | 61 | 0 | 0.0 | 0.0 | 0.00 | 0.00 | 0.00 | 9 | 1009.2 |
| 20260504022255 | 61 | 0 | 0.0 | 0.0 | 0.00 | 0.00 | 0.00 | 9 | 1009.2 |
| 20260504021850 | 61 | 0 | 0.0 | 0.0 | 0.00 | 0.00 | 0.00 | 9 | 1009.3 |
| 20260504021430 | 61 | 0 | 0.0 | 0.0 | 0.00 | 0.00 | 0.00 | 9 | 1009.1 |
| 20260504021025 | 61 | 0 | 0.0 | 0.0 | 0.00 | 0.00 | 0.00 | 9 | 1009.2 |
| 20260504020641 | 61 | 0 | 0.0 | 0.0 | 0.00 | 0.00 | 0.00 | 9 | 1009.1 |
| 20260504020605 | 61 | 0 | 0.0 | 0.0 | 0.00 | 0.00 | 0.00 | 9 | 1009.2 |
| 20260504020140 | 61 | 0 | 0.0 | 0.0 | 0.00 | 0.00 | 0.00 | 9 | 1009.2 |
| 20260504015648 | 61 | 0 | 0.0 | 0.0 | 0.00 | 0.00 | 0.00 | 9 | 1009.2 |
| 20260504015646 | 61 | 0 | 0.0 | 0.0 | 0.00 | 0.00 | 0.00 | 9 | 1009.2 |
| 20260504015358 | 61 | 0 | 0.0 | 0.0 | 0.00 | 0.00 | 0.00 | 9 | 1009.1 |
| 20260504014924 | 61 | 0 | 0.0 | 0.0 | 0.00 | 0.00 | 0.00 | 9 | 1009.1 |
| 20260504014705 | 61 | 0 | 0.0 | 0.0 | 0.00 | 0.00 | 0.00 | 9 | 1009.1 |
| 20260504014454 | 61 | 0 | 0.0 | 0.0 | 0.00 | 0.00 | 0.00 | 9 | 1009.1 |
| 20260504014052 | 61 | 0 | 0.0 | 0.0 | 0.00 | 0.00 | 0.00 | 9 | 1009.2 |
| 20260504013706 | 61 | 0 | 0.0 | 1.0 | 0.00 | 0.00 | 0.00 | 9 | 1009.2 |
| 20260504013632 | 61 | 0 | 0.0 | 0.0 | 0.00 | 0.00 | 0.00 | 9 | 1009.1 |
| 20260504013206 | 61 | 0 | 0.0 | 1.0 | 0.00 | 0.00 | 0.00 | 9 | 1009.2 |
| 20260504012712 | 61 | 0 | 0.0 | 0.0 | 0.00 | 0.00 | 0.00 | 9 | 1009.0 |
| 20260504012430 | 61 | 0 | 0.0 | 0.0 | 0.00 | 0.00 | 0.00 | 9 | 1009.0 |
| 20260504012407 | 61 | 0 | 0.0 | 0.0 | 0.00 | 0.00 | 0.00 | 9 | 1009.1 |
| 20260504011912 | 61 | 0 | 0.0 | 0.0 | 0.00 | 0.00 | 0.00 | 9 | 1009.2 |
| 20260504011439 | 61 | 0 | 0.0 | 0.0 | 0.00 | 0.00 | 0.00 | 9 | 1009.1 |
| 20260504010654 | 62 | 0 | 0.0 | 0.0 | 0.00 | 0.00 | 0.00 | 9 | 1009.0 |
| 20260504010616 | 62 | 0 | 0.0 | 0.0 | 0.00 | 0.00 | 0.00 | 9 | 1009.0 |
| 20260504005657 | 61 | 0 | 0.0 | 0.0 | 0.00 | 0.00 | 0.00 | 9 | 1009.0 |
| 20260504005413 | 61 | 0 | 0.0 | 0.0 | 0.00 | 0.00 | 0.00 | 9 | 1009.1 |
| 20260504005328 | 61 | 0 | 0.0 | 0.0 | 0.00 | 0.00 | 0.00 | 9 | 1009.1 |
| 20260504004941 | 61 | 0 | 0.0 | 0.0 | 0.00 | 0.00 | 0.00 | 9 | 1008.9 |
| 20260504004516 | 61 | 0 | 0.0 | 0.0 | 0.00 | 0.00 | 0.00 | 9 | 1008.8 |
| 20260504004452 | 62 | 0 | 0.0 | 0.0 | 0.00 | 0.00 | 0.00 | 9 | 1008.9 |
| 20260504004051 | 62 | 0 | 0.0 | 0.0 | 0.00 | 0.00 | 0.00 | 9 | 1009.0 |
| 20260504003621 | 62 | 0 | 0.0 | 0.0 | 0.00 | 0.00 | 0.00 | 9 | 1008.9 |
| 20260504003604 | 62 | 0 | 0.0 | 0.0 | 0.00 | 0.00 | 0.00 | 9 | 1009.2 |
| 20260504003136 | 62 | 247 | 0.0 | 1.0 | 0.00 | 0.00 | 0.00 | 9 | 1008.9 |
| 20260504002711 | 61 | 247 | 0.0 | 1.0 | 0.00 | 0.00 | 0.00 | 9 | 1009.3 |
| 20260504002514 | 61 | 247 | 0.0 | 1.0 | 0.00 | 0.00 | 0.00 | 9 | 1009.3 |
| 20260504002426 | 61 | 247 | 0.0 | 1.0 | 0.00 | 0.00 | 0.00 | 9 | 1009.3 |
| 20260504002003 | 61 | 0 | 0.0 | 0.0 | 0.00 | 0.00 | 0.00 | 9 | 1009.3 |
| 20260504001530 | 61 | 0 | 0.0 | 0.0 | 0.00 | 0.00 | 0.00 | 9 | 1009.4 |
| 20260504001043 | 61 | 0 | 0.0 | 0.0 | 0.00 | 0.00 | 0.00 | 9 | 1009.3 |
| 20260504000701 | 61 | 0 | 0.0 | 0.0 | 0.00 | 0.00 | 0.00 | 9 | 1009.4 |
| 20260504000626 | 61 | 0 | 0.0 | 0.0 | 0.00 | 0.00 | 0.00 | 9 | 1009.4 |
| 20260504000201 | 61 | 0 | 0.0 | 0.0 | 0.00 | 0.00 | 0.00 | 9 | 1009.5 |
| 20260503235709 | 61 | 0 | 0.0 | 0.0 | 0.00 | 0.00 | 0.00 | 9 | 1009.6 |
| 20260503235706 | 61 | 0 | 0.0 | 0.0 | 0.00 | 0.00 | 0.00 | 9 | 1009.6 |
| 20260503235411 | 61 | 0 | 0.0 | 0.0 | 0.00 | 0.00 | 0.00 | 9 | 1009.5 |
| 20260503235338 | 61 | 0 | 0.0 | 0.0 | 0.00 | 0.00 | 0.00 | 9 | 1009.5 |
| 20260503235000 | 61 | 0 | 0.0 | 0.0 | 0.00 | 0.00 | 0.00 | 9 | 1009.6 |
| 20260503234514 | 61 | 0 | 0.0 | 0.0 | 0.00 | 0.00 | 0.00 | 9 | 1009.7 |
| 20260503234452 | 61 | 0 | 0.0 | 0.0 | 0.00 | 0.00 | 0.00 | 9 | 1009.8 |
| 20260503234050 | 61 | 0 | 0.0 | 0.0 | 0.00 | 0.00 | 0.00 | 9 | 1009.7 |
| 20260503233620 | 62 | 0 | 0.0 | 0.0 | 0.00 | 0.00 | 0.00 | 9 | 1009.8 |
| 20260503233602 | 62 | 0 | 0.0 | 1.0 | 0.00 | 0.00 | 0.00 | 9 | 1009.8 |
| 20260503233135 | 61 | 0 | 0.0 | 0.0 | 0.00 | 0.00 | 0.00 | 9 | 1009.9 |
| 20260503232713 | 61 | 0 | 0.0 | 0.0 | 0.00 | 0.00 | 0.00 | 9 | 1009.8 |
| 20260503232710 | 61 | 0 | 0.0 | 0.0 | 0.00 | 0.00 | 0.00 | 9 | 1009.8 |
| 20260503232513 | 61 | 0 | 0.0 | 0.0 | 0.00 | 0.00 | 0.00 | 9 | 1009.8 |
| 20260503232052 | 61 | 0 | 0.0 | 0.0 | 0.00 | 0.00 | 0.00 | 9 | 1010.0 |
| 20260503231659 | 61 | 0 | 0.0 | 0.0 | 0.00 | 0.00 | 0.00 | 9 | 1010.0 |
| 20260503231551 | 61 | 0 | 0.0 | 0.0 | 0.00 | 0.00 | 0.00 | 9 | 1009.9 |
| 20260503231120 | 61 | 0 | 0.0 | 0.0 | 0.00 | 0.00 | 0.00 | 9 | 1010.0 |
| 20260503230636 | 61 | 270 | 1.0 | 2.0 | 0.00 | 0.00 | 0.00 | 9 | 1010.0 |
| 20260503230202 | 61 | 270 | 1.0 | 2.0 | 0.00 | 0.00 | 0.00 | 9 | 1009.9 |
| 20260503225706 | 61 | 292 | 1.0 | 2.0 | 0.00 | 0.00 | 0.00 | 9 | 1009.9 |
| 20260503225321 | 61 | 270 | 2.0 | 2.0 | 0.00 | 0.00 | 0.00 | 9 | 1009.8 |
| 20260503224910 | 61 | 292 | 1.0 | 2.0 | 0.00 | 0.00 | 0.00 | 9 | 1009.9 |
| 20260503224455 | 61 | 315 | 2.0 | 3.0 | 0.00 | 0.00 | 0.00 | 9 | 1009.9 |
| 20260503224025 | 61 | 292 | 2.0 | 2.0 | 0.00 | 0.00 | 0.00 | 9 | 1009.8 |
| 20260503223533 | 61 | 292 | 1.0 | 2.0 | 0.00 | 0.00 | 0.00 | 9 | 1009.8 |
| 20260503223123 | 61 | 292 | 2.0 | 2.0 | 0.00 | 0.00 | 0.00 | 9 | 1009.9 |
| 20260503222719 | 61 | 292 | 2.0 | 2.0 | 0.00 | 0.00 | 0.00 | 9 | 1010.0 |
| 20260503222715 | 61 | 292 | 2.0 | 2.0 | 0.00 | 0.00 | 0.00 | 9 | 1010.0 |
| 20260503222406 | 61 | 315 | 2.0 | 2.0 | 0.00 | 0.00 | 0.00 | 9 | 1009.9 |
| 20260503221951 | 62 | 315 | 1.0 | 2.0 | 0.00 | 0.00 | 0.00 | 9 | 1009.9 |
| 20260503221442 | 61 | 0 | 0.0 | 0.0 | 0.00 | 0.00 | 0.00 | 9 | 1009.8 |
| 20260503221041 | 61 | 0 | 0.0 | 0.0 | 0.00 | 0.00 | 0.00 | 9 | 1009.8 |
| 20260503220554 | 62 | 0 | 0.0 | 0.0 | 0.00 | 0.00 | 0.00 | 9 | 1010.0 |
| 20260503220126 | 62 | 112 | 3.0 | 3.0 | 0.00 | 0.00 | 0.00 | 9 | 1009.8 |
| 20260503215704 | 62 | 112 | 3.0 | 3.0 | 0.00 | 0.00 | 0.00 | 9 | 1009.7 |
| 20260503215701 | 62 | 112 | 3.0 | 3.0 | 0.00 | 0.00 | 0.00 | 9 | 1009.7 |
| 20260503215406 | 62 | 112 | 3.0 | 3.0 | 0.00 | 0.00 | 0.00 | 9 | 1009.8 |
| 20260503214943 | 62 | 112 | 1.0 | 2.0 | 0.00 | 0.00 | 0.00 | 9 | 1009.9 |
| 20260503214521 | 62 | 112 | 0.0 | 2.0 | 0.00 | 0.00 | 0.00 | 9 | 1009.9 |
| 20260503214053 | 62 | 0 | 0.0 | 1.0 | 0.00 | 0.00 | 0.00 | 9 | 1010.1 |
| 20260503213615 | 62 | 247 | 1.0 | 2.0 | 0.00 | 0.00 | 0.00 | 9 | 1010.2 |
| 20260503213131 | 62 | 202 | 1.0 | 2.0 | 0.00 | 0.00 | 0.00 | 9 | 1010.2 |
| 20260503212706 | 63 | 90 | 0.0 | 1.0 | 0.00 | 0.00 | 0.00 | 9 | 1010.0 |
| 20260503212403 | 63 | 90 | 0.0 | 1.0 | 0.00 | 0.00 | 0.00 | 9 | 1010.1 |
| 20260503212319 | 63 | 90 | 0.0 | 1.0 | 0.00 | 0.00 | 0.00 | 9 | 1010.1 |
| 20260503211929 | 63 | 90 | 2.0 | 3.0 | 0.00 | 0.00 | 0.00 | 9 | 1010.0 |
| 20260503211442 | 63 | 0 | 0.0 | 0.0 | 0.00 | 0.00 | 0.00 | 9 | 1010.2 |
| 20260503211040 | 63 | 270 | 1.0 | 2.0 | 0.00 | 0.00 | 0.00 | 9 | 1010.4 |
| 20260503210554 | 63 | 0 | 0.0 | 0.0 | 0.00 | 0.00 | 0.00 | 9 | 1010.3 |
| 20260503210126 | 63 | 0 | 0.0 | 0.0 | 0.00 | 0.00 | 0.00 | 9 | 1010.2 |
| 20260503205704 | 63 | 225 | 0.0 | 1.0 | 0.00 | 0.00 | 0.00 | 9 | 1010.1 |
| 20260503205701 | 63 | 225 | 0.0 | 1.0 | 0.00 | 0.00 | 0.00 | 9 | 1010.1 |
| 20260503205425 | 63 | 247 | 0.0 | 1.0 | 0.00 | 0.00 | 0.00 | 9 | 1010.2 |
| 20260503205409 | 63 | 225 | 0.0 | 1.0 | 0.00 | 0.00 | 0.00 | 9 | 1010.3 |
| 20260503204949 | 62 | 0 | 0.0 | 1.0 | 0.00 | 0.00 | 0.00 | 9 | 1010.0 |
| 20260503204531 | 63 | 270 | 1.0 | 2.0 | 0.00 | 0.00 | 0.00 | 9 | 1010.0 |
| 20260503204046 | 62 | 292 | 1.0 | 2.0 | 0.00 | 0.00 | 0.00 | 9 | 1010.0 |
| 20260503203706 | 62 | 247 | 0.0 | 1.0 | 0.00 | 0.00 | 0.00 | 9 | 1010.0 |
| 20260503203629 | 62 | 247 | 0.0 | 1.0 | 0.00 | 0.00 | 0.00 | 9 | 1010.0 |
| 20260503203204 | 62 | 157 | 1.0 | 2.0 | 0.00 | 0.00 | 0.00 | 9 | 1009.9 |
| 20260503202712 | 62 | 0 | 0.0 | 0.0 | 0.00 | 0.00 | 0.00 | 9 | 1009.7 |
| 20260503202709 | 62 | 0 | 0.0 | 0.0 | 0.00 | 0.00 | 0.00 | 9 | 1009.7 |
| 20260503202407 | 62 | 0 | 0.0 | 0.0 | 0.00 | 0.00 | 0.00 | 9 | 1009.7 |
| 20260503201940 | 62 | 0 | 0.0 | 0.0 | 0.00 | 0.00 | 0.00 | 9 | 1009.8 |
| 20260503201502 | 62 | 90 | 2.0 | 2.0 | 0.00 | 0.00 | 0.00 | 9 | 1009.3 |
| 20260503201051 | 62 | 90 | 2.0 | 2.0 | 0.00 | 0.00 | 0.00 | 9 | 1009.3 |
| 20260503200611 | 62 | 67 | 2.0 | 3.0 | 0.00 | 0.00 | 0.00 | 9 | 1009.3 |
| 20260503200127 | 62 | 67 | 1.0 | 2.0 | 0.00 | 0.00 | 0.00 | 9 | 1009.5 |
| 20260503195702 | 62 | 67 | 2.0 | 2.0 | 0.00 | 0.00 | 0.00 | 9 | 1009.2 |
| 20260503195443 | 62 | 67 | 2.0 | 2.0 | 0.00 | 0.00 | 0.00 | 9 | 1009.3 |
| 20260503194947 | 62 | 67 | 1.0 | 2.0 | 0.00 | 0.00 | 0.00 | 9 | 1009.1 |
| 20260503194529 | 62 | 90 | 2.0 | 2.0 | 0.00 | 0.00 | 0.00 | 9 | 1008.9 |
| 20260503194044 | 62 | 112 | 2.0 | 3.0 | 0.00 | 0.00 | 0.00 | 9 | 1008.8 |